Wind_Speed
10 11 12 13 13 14 14 14 15 15 16 16 17 17 16 16 14 14 8 2 1 3 5 4 3 1 2 3 4 5 4 3 4 4 5 5 3 6 7 7 7 10 10 9 18
11 12 13 13 13 14 15 14 15 16 16 16 18 16 15 15 11 8 9 5 4 5 2 3 2 1 2 4 4 4 4 8 7 3 6 18 6 12 4 8 10 18 19 15 22
12 12 13 14 14 15 15 15 15 17 17 17 17 15 14 13 4 4 7 7 1 4 5 4 2 1 2 2 4 3 5 4 8 14 13 8 11 4 4 3 14 26 22 17 25
12 13 14 14 15 15 16 15 15 16 17 17 16 14 12 9 2 3 7 6 5 1 1 1 2 2 2 1 2 1 8 6 8 9 8 4 8 4 11 14 15 20 22 22 27
13 14 15 15 17 16 16 16 15 16 16 16 16 14 11 7 1 2 3 5 4 6 2 4 4 2 1 2 2 4 4 5 15 21 16 12 14 8 14 12 21 15 23 25 28
14 15 15 16 17 17 17 16 15 15 15 16 15 14 9 4 1 3 2 5 5 7 7 4 4 5 1 3 2 3 9 17 12 12 8 5 8 9 21 9 13 17 28 28 29
14 15 15 17 17 17 17 16 15 15 15 16 14 13 10 6 3 4 3 3 3 5 5 5 7 5 5 4 4 6 6 9 3 5 4 9 6 4 11 10 13 24 31 29 30
15 15 17 18 18 17 17 16 15 14 14 11 11 9 5 1 5 6 5 1 3 6 4 5 3 5 2 5 6 4 5 6 6 11 3 4 9 5 14 13 18 28 32 34 35
15 16 18 18 18 17 14 15 14 12 9 9 7 5 1 2 2 3 3 4 1 6 3 4 3 3 3 4 5 7 2 3 10 4 4 6 8 13 13 9 14 23 30 34 38
16 17 18 18 18 16 14 15 11 9 7 7 4 3 1 5 3 5 3 4 2 6 1 2 3 4 4 6 0 3 4 5 5 6 6 6 7 9 6 5 9 15 23 31 33
16 18 17 17 16 13 15 10 7 3 18 8 12 7 10 3 5 1 1 5 2 2 3 5 5 2 4 4 4 2 3 3 6 5 3 4 7 12 19 7 5 12 14 22 32
17 17 17 16 11 8 13 11 12 10 11 16 14 20 18 14 5 0 4 3 2 0 2 6 1 5 5 4 5 4 3 7 6 3 3 7 10 7 8 14 19 19 19 17 26
16 17 16 14 6 4 7 12 12 11 4 10 5 4 1 9 6 3 5 3 2 1 1 4 4 6 3 3 2 3 4 3 5 5 3 7 7 8 8 8 17 14 15 13 19
15 17 16 11 4 6 1 7 9 10 4 5 3 2 4 4 2 5 9 1 2 0 2 3 4 4 5 5 3 4 3 4 2 3 2 4 3 6 8 11 15 26 18 16 12
14 15 14 12 9 6 4 7 10 3 4 2 2 3 6 2 3 5 8 5 2 1 4 6 3 4 6 4 4 6 5 4 2 2 2 6 4 8 7 9 14 19 31 28 23
13 14 14 12 10 5 5 8 3 5 1 3 3 3 3 1 2 3 3 2 2 2 2 7 4 3 6 3 4 2 1 5 4 3 3 5 4 6 4 6 10 14 28 34 35
12 12 14 11 7 4 4 3 5 3 4 5 2 2 3 4 3 2 3 2 2 4 6 6 3 4 2 4 1 7 7 4 5 5 4 1 2 7 6 7 5 13 25 26 29
12 12 11 8 5 3 2 4 2 1 2 4 4 4 4 7 4 4 3 4 2 4 1 2 5 6 6 1 1 3 5 5 2 2 5 4 2 5 2 18 18 23 24 25 26
11 9 6 2 1 4 2 4 5 2 3 5 2 6 6 5 3 4 4 4 2 1 4 2 4 4 5 4 3 1 6 2 5 2 2 4 6 10 10 16 24 26 32 34 32
9 4 3 4 5 5 4 4 3 3 5 3 4 3 4 7 4 4 5 5 6 5 4 1 3 1 6 3 11 7 3 4 4 1 3 5 5 4 12 12 11 19 29 35 35
5 1 5 7 5 2 3 5 4 6 1 3 2 4 3 3 3 4 5 0 6 7 7 2 2 6 2 6 1 5 4 4 4 3 4 1 5 5 5 6 10 15 25 29 31
2 2 10 8 2 2 2 4 4 4 4 5 5 4 3 4 4 3 3 3 18 4 3 3 3 2 1 7 2 3 3 4 4 5 1 3 6 2 5 16 21 23 27 28 29
3 3 9 6 3 2 3 3 3 4 4 3 2 2 1 3 3 4 3 4 16 6 3 3 2 3 8 5 4 5 3 3 3 3 4 4 5 3 20 18 22 22 28 30 33
4 2 3 6 2 4 2 2 2 3 1 4 3 4 3 4 6 2 5 4 9 8 9 2 3 5 6 5 2 3 4 1 3 2 3 5 6 11 10 12 19 25 27 30 33
5 2 4 3 4 4 1 2 0 1 2 4 4 4 3 3 3 3 4 6 4 11 7 4 0 2 3 4 2 3 7 4 6 7 5 4 3 4 6 7 14 20 27 33 36
5 4 5 3 4 7 0 2 3 3 4 2 6 3 3 4 3 5 2 1 2 5 3 4 2 1 3 3 4 4 9 9 6 1 3 3 3 2 1 7 19 23 27 30 34
10 6 4 1 4 5 5 2 3 5 5 6 7 5 4 4 3 1 4 5 4 2 2 1 3 3 4 4 6 7 5 2 5 3 2 2 4 6 2 9 13 17 20 23 28
Wind_Direction
349 350 346 337 338 335 333 333 332 332 333 335 335 329 327 325 321 317 328 294 195 170 200 220 276 249 177 165 169 156 73 218 245 204 252 219 337 320 292 248 225 218 255 278 182
349 349 346 337 339 335 332 334 331 330 333 337 337 331 332 331 337 59 31 18 203 198 222 265 206 143 169 147 162 116 124 221 217 226 271 295 278 289 233 233 256 243 248 256 185
347 347 345 335 339 334 331 332 331 329 332 337 338 333 335 335 0 36 31 26 151 207 266 256 256 352 104 167 188 164 191 216 270 277 286 274 312 237 192 231 223 229 233 201 190
344 344 343 335 339 334 331 330 329 326 329 335 339 336 337 334 138 46 35 32 54 29 274 177 147 73 63 14 197 246 259 241 282 298 298 248 287 256 219 254 259 246 234 203 202
341 342 340 337 339 334 331 329 326 322 325 330 334 335 340 320 270 123 42 24 31 26 49 111 92 66 92 262 300 184 261 267 294 294 285 275 257 230 255 268 248 278 219 216 214
338 339 338 337 337 334 332 328 323 320 321 322 325 330 326 305 96 135 27 38 42 42 48 107 17 341 262 244 186 266 277 286 295 292 279 244 274 176 269 241 244 228 213 217 222
333 336 336 336 336 334 333 327 324 322 318 316 319 321 303 268 181 218 319 340 10 359 349 352 329 333 316 308 310 286 316 333 322 327 305 282 341 222 321 219 203 205 212 218 224
331 335 334 337 336 336 334 325 328 326 321 318 321 320 271 213 229 276 282 246 333 348 338 360 352 300 290 311 340 15 52 12 296 349 309 61 298 302 4 217 208 203 210 218 227
330 333 335 339 336 338 332 326 327 327 330 329 325 337 358 358 342 336 293 245 285 4 333 299 354 22 8 45 9 0 2 342 320 326 318 49 298 301 342 233 226 221 221 225 234
330 330 337 342 339 341 335 334 322 315 331 328 321 321 28 343 10 338 350 190 337 351 35 54 52 48 35 56 263 330 342 314 246 301 347 348 277 289 350 214 235 240 238 240 239
329 330 339 344 344 350 349 346 349 3 327 273 277 280 291 334 316 15 251 175 269 17 47 19 54 264 246 206 211 244 225 259 268 264 287 303 282 293 321 308 265 251 244 251 245
327 331 339 344 350 18 24 60 28 323 309 308 284 261 260 273 302 237 152 164 110 76 22 17 277 228 243 238 213 220 289 286 284 266 167 323 306 318 324 319 319 310 316 284 249
326 330 336 348 358 2 35 40 5 343 293 301 307 294 247 208 218 229 177 154 103 42 110 153 243 286 201 292 251 209 190 242 236 337 11 334 339 330 325 326 348 2 328 308 264
322 326 337 354 351 348 338 355 343 328 39 283 309 157 144 120 242 265 198 187 48 214 166 237 300 310 352 333 136 346 236 249 289 62 254 28 272 314 322 326 6 355 354 8 357
318 324 335 341 333 326 292 324 331 333 59 278 91 141 164 169 329 15 173 183 152 92 78 268 300 322 329 231 179 237 62 352 31 85 30 343 65 279 353 336 332 330 3 20 27
314 320 324 326 326 309 302 315 337 42 55 2 131 138 94 291 339 77 129 116 54 101 349 235 275 231 224 273 208 96 44 41 53 55 29 284 116 302 312 291 306 316 0 18 18
307 312 313 319 317 304 325 347 45 113 320 331 353 71 82 342 328 77 116 40 73 21 358 334 282 283 286 336 39 63 51 352 7 9 234 345 34 235 288 302 276 305 329 0 11
303 306 305 306 279 257 344 54 98 315 326 326 23 69 73 0 15 32 58 13 31 99 52 39 347 16 323 207 158 78 128 141 287 269 275 319 276 256 243 340 344 5 12 15 17
305 311 310 246 210 183 108 73 210 219 302 338 46 61 359 1 40 67 46 9 296 213 160 37 294 320 17 4 83 88 38 175 106 354 23 296 306 311 9 5 6 358 3 5 3
314 321 147 134 131 149 81 220 248 239 320 45 89 42 46 336 40 49 23 345 339 17 203 154 331 10 298 40 24 90 154 24 14 325 298 306 300 266 347 338 342 354 3 6 7
308 143 158 138 140 125 147 227 279 301 337 62 100 82 75 1 11 34 343 236 9 327 54 64 108 291 45 19 359 359 9 39 106 119 167 296 274 205 283 318 336 351 15 14 13
218 89 145 151 76 55 159 205 315 308 26 67 83 87 91 24 38 66 83 336 341 304 38 348 129 4 312 296 203 93 120 119 102 292 135 153 272 90 10 32 29 18 19 21 24
183 123 167 167 133 276 276 277 271 335 15 52 90 67 54 62 66 64 11 344 16 42 54 358 15 26 348 349 8 55 38 85 97 84 214 157 266 90 23 22 24 22 26 28 26
184 98 137 191 200 145 213 248 299 332 325 76 112 72 79 52 24 86 1 355 3 22 12 110 95 155 198 223 204 329 320 312 126 132 252 232 288 349 6 9 11 23 28 28 28
195 214 154 193 234 185 151 323 105 112 88 63 53 75 116 91 50 19 358 339 13 10 18 71 323 331 275 240 242 251 262 212 208 227 188 260 323 2 350 341 3 20 27 28 28
182 168 158 140 143 136 90 238 197 104 41 37 103 40 84 133 164 205 190 251 264 346 33 3 289 21 291 314 358 273 257 253 239 216 288 341 94 266 339 37 33 31 31 28 26
199 178 148 206 136 117 202 186 137 117 56 61 131 101 84 158 144 142 234 265 253 246 228 75 124 78 260 344 331 308 277 334 99 39 220 214 221 233 257 49 26 27 33 30 25
Height
1550 1549 1548 1547 1544 1543 1541 1539 1537 1535 1534 1531 1529 1526 1524 1522 1520 1518 1516 1518 1518 1518 1520 1521 1522 1522 1523 1523 1524 1525 1539 1547 1536 1532 1521 1516 1515 1510 1508 1508 1506 1505 1505 1507 1506
1549 1548 1547 1546 1544 1542 1540 1538 1536 1534 1533 1530 1528 1525 1523 1520 1518 1517 1518 1516 1517 1519 1520 1521 1521 1521 1522 1522 1524 1525 1540 1534 1522 1519 1518 1511 1513 1509 1507 1506 1505 1503 1503 1505 1505
1549 1548 1547 1546 1543 1541 1539 1536 1534 1533 1531 1529 1526 1524 1522 1520 1519 1518 1518 1517 1517 1518 1519 1520 1521 1521 1521 1522 1523 1524 1531 1521 1517 1515 1514 1510 1506 1506 1503 1505 1502 1498 1501 1502 1503
1549 1548 1546 1545 1542 1540 1537 1535 1533 1531 1530 1528 1525 1523 1521 1520 1523 1518 1518 1518 1518 1518 1519 1519 1520 1521 1523 1523 1522 1525 1519 1519 1514 1512 1511 1508 1504 1504 1501 1497 1497 1497 1499 1499 1501
1549 1547 1545 1543 1540 1538 1536 1533 1531 1529 1528 1526 1524 1522 1521 1520 1518 1518 1519 1518 1518 1518 1518 1519 1520 1521 1523 1522 1522 1523 1518 1515 1511 1508 1506 1504 1501 1500 1495 1495 1495 1496 1496 1496 1498
1548 1546 1544 1542 1539 1536 1534 1531 1529 1527 1526 1525 1523 1521 1521 1521 1518 1518 1519 1518 1518 1519 1519 1520 1521 1521 1521 1520 1521 1519 1516 1511 1507 1505 1503 1502 1495 1496 1485 1489 1490 1492 1492 1493 1494
1548 1545 1543 1540 1537 1534 1531 1529 1527 1525 1524 1523 1521 1520 1519 1518 1518 1518 1518 1518 1519 1519 1519 1520 1521 1522 1521 1519 1519 1517 1516 1509 1505 1504 1503 1500 1495 1499 1489 1488 1487 1488 1490 1491 1493
1547 1544 1542 1539 1535 1532 1530 1527 1525 1523 1522 1521 1519 1519 1516 1516 1517 1518 1518 1519 1519 1519 1519 1520 1520 1520 1520 1520 1518 1519 1521 1529 1507 1506 1501 1499 1512 1491 1489 1487 1486 1486 1489 1491 1491
1545 1543 1541 1537 1533 1531 1528 1525 1523 1521 1520 1519 1519 1518 1516 1517 1517 1517 1517 1518 1519 1519 1519 1519 1520 1520 1520 1526 1534 1532 1535 1530 1521 1506 1505 1503 1508 1490 1489 1488 1487 1487 1488 1488 1488
1544 1542 1540 1536 1533 1530 1527 1524 1521 1520 1519 1518 1518 1520 1517 1518 1517 1517 1517 1518 1519 1519 1519 1520 1520 1524 1529 1535 1552 1538 1537 1533 1529 1511 1506 1509 1506 1491 1488 1489 1487 1485 1485 1486 1487
1543 1542 1538 1535 1533 1530 1528 1524 1525 1522 1519 1519 1519 1519 1517 1517 1517 1517 1517 1519 1519 1520 1524 1522 1529 1535 1529 1528 1528 1529 1532 1534 1521 1511 1511 1508 1507 1492 1486 1487 1485 1483 1482 1481 1480
1542 1540 1538 1536 1533 1532 1531 1529 1534 1534 1523 1516 1515 1515 1515 1517 1519 1517 1518 1520 1520 1525 1523 1529 1534 1524 1522 1523 1526 1529 1530 1529 1517 1510 1511 1508 1505 1497 1488 1484 1482 1480 1479 1475 1474
1540 1539 1537 1535 1533 1534 1533 1535 1535 1532 1529 1515 1513 1512 1513 1516 1517 1517 1519 1519 1521 1524 1525 1532 1525 1521 1521 1521 1524 1526 1528 1524 1523 1513 1510 1511 1512 1505 1487 1486 1481 1479 1477 1470 1465
1540 1538 1537 1535 1537 1534 1535 1536 1535 1533 1539 1519 1514 1513 1514 1514 1517 1516 1518 1521 1521 1524 1525 1527 1521 1521 1521 1522 1521 1525 1516 1515 1514 1523 1535 1517 1542 1511 1499 1492 1482 1478 1474 1469 1461
1539 1537 1536 1535 1535 1535 1536 1535 1534 1534 1552 1516 1514 1515 1515 1516 1517 1516 1517 1519 1522 1523 1526 1530 1523 1522 1525 1518 1516 1521 1513 1518 1516 1525 1526 1526 1537 1517 1503 1498 1488 1480 1473 1469 1465
1538 1537 1535 1535 1534 1534 1534 1534 1534 1545 1544 1519 1514 1515 1516 1515 1515 1517 1518 1520 1521 1522 1524 1524 1519 1519 1516 1511 1511 1510 1513 1524 1529 1537 1550 1533 1537 1530 1514 1503 1493 1483 1477 1472 1467
1537 1536 1534 1534 1534 1533 1533 1534 1546 1549 1522 1524 1518 1515 1518 1519 1517 1517 1520 1524 1532 1537 1540 1528 1520 1515 1513 1515 1511 1516 1533 1560 1556 1564 1556 1532 1536 1523 1503 1496 1493 1487 1479 1478 1472
1535 1534 1532 1532 1532 1533 1533 1536 1545 1530 1526 1519 1520 1519 1525 1523 1522 1522 1525 1534 1526 1531 1542 1545 1542 1519 1512 1514 1518 1524 1531 1558 1558 1569 1558 1534 1534 1518 1498 1498 1496 1494 1488 1481 1477
1533 1532 1531 1531 1532 1533 1535 1550 1543 1532 1526 1525 1522 1530 1533 1527 1526 1528 1532 1536 1530 1529 1539 1543 1536 1518 1515 1514 1516 1524 1540 1533 1552 1558 1560 1548 1526 1503 1505 1499 1496 1492 1489 1486 1482
1531 1530 1531 1531 1532 1533 1536 1546 1537 1529 1525 1524 1533 1532 1540 1535 1533 1533 1537 1534 1534 1529 1527 1533 1543 1524 1518 1517 1518 1522 1527 1544 1554 1556 1552 1551 1542 1540 1519 1512 1504 1499 1496 1493 1487
1531 1530 1531 1531 1533 1533 1544 1542 1534 1527 1526 1527 1531 1535 1539 1540 1537 1541 1544 1535 1533 1530 1528 1531 1537 1533 1523 1532 1535 1535 1540 1545 1551 1559 1566 1569 1549 1526 1520 1515 1512 1507 1504 1500 1496
1529 1531 1531 1532 1535 1538 1541 1536 1531 1528 1526 1527 1530 1533 1537 1539 1541 1540 1543 1541 1534 1532 1534 1535 1542 1548 1539 1533 1530 1531 1539 1547 1562 1559 1563 1566 1552 1520 1517 1516 1515 1512 1508 1504 1500
1529 1531 1532 1532 1540 1540 1535 1533 1531 1529 1528 1528 1533 1533 1535 1540 1544 1543 1543 1540 1536 1534 1538 1537 1549 1562 1550 1542 1533 1539 1538 1540 1549 1556 1557 1563 1549 1520 1518 1519 1519 1516 1511 1505 1500
1530 1532 1532 1533 1534 1535 1535 1533 1532 1529 1529 1530 1533 1534 1538 1543 1545 1548 1545 1541 1539 1538 1537 1536 1549 1552 1564 1548 1544 1544 1542 1539 1546 1560 1552 1551 1539 1529 1530 1526 1522 1518 1514 1509 1503
1527 1527 1528 1535 1533 1533 1534 1534 1533 1532 1530 1531 1534 1536 1540 1547 1550 1550 1547 1544 1542 1541 1539 1541 1549 1547 1543 1543 1542 1541 1541 1540 1544 1542 1547 1538 1538 1539 1536 1532 1526 1521 1516 1510 1506
1524 1526 1528 1530 1530 1532 1535 1533 1533 1532 1532 1534 1538 1540 1540 1545 1545 1551 1549 1549 1547 1544 1544 1545 1551 1549 1547 1541 1544 1543 1537 1536 1535 1534 1535 1537 1539 1537 1535 1532 1526 1522 1518 1513 1509
1523 1525 1525 1529 1529 1532 1535 1533 1532 1531 1535 1535 1537 1541 1544 1545 1544 1545 1545 1544 1544 1545 1546 1547 1552 1558 1559 1549 1546 1550 1534 1532 1539 1539 1537 1541 1537 1533 1532 1529 1528 1525 1521 1517 1513